Weather History for Garden City, KS

Change the Weather History Date:

Saturday, April 5, 2014

  Actual Average Record
Temperature  
Mean Temperature 50 °F 49 °F  
Max Temperature 67 °F 64 °F 91 °F (1967)
Min Temperature 32 °F 35 °F 20 °F (1966)
Degree Days  
Heating Degree Days 15 16  
Month to date heating degree days 107 82  
Since 1 July heating degree days 5024 4770  
Cooling Degree Days 0 0  
Month to date cooling degree days 0 0  
Year to date cooling degree days 0 0  
Moisture  
Dew Point 32 °F    
Average Humidity 53    
Maximum Humidity 86    
Minimum Humidity 19    
Precipitation  
Precipitation 0.03 in 0.05 in 1.66 in (1951)
Month to date precipitation 0.11 0.25  
Year to date precipitation 0.31 2.59  
Sea Level Pressure  
Sea Level Pressure 29.97 in    
Wind  
Wind Speed 14 mph (South)    
Max Wind Speed 29 mph    
Max Gust Speed 35 mph    
Visibility 10 miles    
Events Rain    
T = Trace of Precipitation, MM = Missing Value Source: NWS Daily Summary

Daily Weather History Graph

Daily Weather History Graph

Search for Another Location

Airport:

Trip Planner

Search our weather history database for the weather conditions in past years. The results will help you decide how hot, cold, wet, or windy it might be!

Date:

Astronomy

Apr. 05, 2014 Rise Set
Actual Time 7:22 AM CDT 8:09 PM CDT
Civil Twilight 6:55 AM CDT 8:36 PM CDT
Nautical Twilight 6:23 AM CDT 9:07 PM CDT
Astronomical Twilight 5:51 AM CDT 9:40 PM CDT
Moon 11:34 AM CDT (4/5) 1:17 AM CDT (4/5)
Length of Visible Light 13h 40m
Length of Day
12h 47m
Waxing Crescent, 34% of the Moon is Illuminated
Apr 5
Waxing Crescent
Apr 7
First Quarter
Apr 15
Full
Apr 22
Last Quarter
Apr 29
New

Hourly Weather History & Observations

Time (CDT) Temp. Windchill Dew Point Humidity Pressure Visibility Wind Dir Wind Speed Gust Speed Precip Events Conditions
12:54 AM 39.9 °F 31.8 °F 26.1 °F 58% 30.04 in 10.0 mi SE 15.0 mph - N/A   Clear
1:54 AM 39.9 °F 31.8 °F 24.1 °F 53% 30.04 in 10.0 mi SE 15.0 mph - N/A   Clear
2:54 AM 37.9 °F 29.6 °F 24.1 °F 57% 30.03 in 10.0 mi SSE 13.8 mph - N/A   Clear
3:54 AM 37.9 °F 29.6 °F 24.1 °F 57% 30.01 in 10.0 mi SSE 13.8 mph - N/A   Clear
4:54 AM 37.9 °F 29.6 °F 23.0 °F 55% 29.99 in 10.0 mi SSE 13.8 mph - N/A   Clear
5:54 AM 36.0 °F 28.0 °F 23.0 °F 59% 29.99 in 10.0 mi SSE 11.5 mph - N/A   Clear
6:54 AM 34.0 °F 26.6 °F 23.0 °F 64% 29.99 in 10.0 mi SSE 9.2 mph - N/A   Clear
7:54 AM 35.1 °F 27.4 °F 24.1 °F 64% 30.01 in 10.0 mi SSE 10.4 mph - N/A   Clear
8:54 AM 37.9 °F 29.6 °F 25.0 °F 60% 30.02 in 10.0 mi South 13.8 mph - N/A   Clear
9:54 AM 42.1 °F 34.9 °F 26.1 °F 53% 30.01 in 10.0 mi South 13.8 mph - N/A   Clear
10:54 AM 48.9 °F - 26.1 °F 41% 30.02 in 10.0 mi South 16.1 mph 24.2 mph N/A   Overcast
11:54 AM 51.1 °F - 27.0 °F 39% 30.02 in 10.0 mi South 16.1 mph 24.2 mph N/A   Overcast
12:54 PM 55.0 °F - 27.0 °F 34% 29.99 in 10.0 mi SSW 15.0 mph - N/A   Overcast
1:54 PM 60.1 °F - 26.1 °F 27% 29.95 in 10.0 mi South 24.2 mph 31.1 mph N/A   Overcast
2:54 PM 64.0 °F - 24.1 °F 22% 29.91 in 10.0 mi South 23.0 mph 31.1 mph N/A   Clear
3:54 PM 64.0 °F - 21.0 °F 19% 29.87 in 10.0 mi South 19.6 mph 29.9 mph N/A   Partly Cloudy
4:54 PM 63.0 °F - 27.0 °F 26% 29.86 in 10.0 mi WSW 23.0 mph 29.9 mph N/A   Partly Cloudy
5:54 PM 57.0 °F - 37.9 °F 49% 29.88 in 10.0 mi West 17.3 mph - N/A   Mostly Cloudy
6:54 PM 53.1 °F - 41.0 °F 64% 29.91 in 10.0 mi West 12.7 mph - N/A   Overcast
7:54 PM 50.0 °F - 41.0 °F 71% 29.94 in 10.0 mi SW 16.1 mph - N/A   Overcast
8:54 PM 46.9 °F - 43.0 °F 86% 29.96 in 10.0 mi SSW 6.9 mph - 0.00 in Rain Light Rain
9:54 PM 46.0 °F 41.4 °F 43.0 °F 89% 29.98 in 9.0 mi South 9.2 mph - 0.02 in Rain Light Rain
10:01 PM 46.0 °F 41.0 °F 43.0 °F 89% 29.98 in 7.0 mi SSE 10.4 mph - 0.00 in Rain Light Rain
10:10 PM 46.0 °F 41.0 °F 43.0 °F 89% 29.98 in 9.0 mi SSE 10.4 mph - 0.01 in Rain Light Rain
10:27 PM 45.0 °F 39.3 °F 42.1 °F 90% 29.98 in 10.0 mi South 11.5 mph - 0.01 in Rain Light Rain
10:37 PM 45.0 °F 39.3 °F 42.1 °F 90% 29.98 in 10.0 mi SSE 11.5 mph - 0.01 in Rain Light Rain
10:44 PM 45.0 °F 38.2 °F 42.1 °F 90% 29.98 in 10.0 mi SSE 15.0 mph - 0.01 in   Overcast
10:52 PM 44.6 °F 39.2 °F 41.0 °F 87% 29.98 in 10.0 mi SSE 10.4 mph - 0.01 in Rain Light Rain
10:54 PM 44.1 °F 39.0 °F 41.0 °F 89% 29.98 in 10.0 mi SSE 9.2 mph - 0.01 in Rain Light Rain
11:54 PM 44.1 °F 39.0 °F 41.0 °F 89% 29.97 in 10.0 mi SE 9.2 mph - 0.00 in   Overcast